SCP
0 0 0 -0 0 0 -0 -0 -0 0 0 0 0 0 0 0 0 0 0 0 0 0
0 0 0 -0 0 0 -0 0 0 0 -0 -0 -0 0 0 -0 0 0 -0 0 0 0
0 0 0 0 -0 -0 -0 -0 0 0 0 0 -0 0 0 0 0 0 -0 -0 0 0
0 0 0 0 -0 -0 -0 -0 -0 0 0 0 0 0 0 0 0 0 -0 -0 -0 -0
0 0 0 0 0 -0 0 -0 -0 0 0 0 0 0 0 -0 0 -0 -0 -0 0 0
0 0 0 0 0 -0 0 -0 0 -0 0 0 0 0 0 0 0 0 0 0 0 0
0 0 0 0 0 0 -0 0 0 0 0 0 0 0 0 0 0 0 0 0 0 0
0 0 0 0 0 0 0 0 0 -0 0 0 0 0 0 0 0 0 0 0 0 0
0 0 0 0 0 0 0 0 0 0 -0 -0 0 0 0 0 0 0 0 0 0 0
0 0 0 0 0 0 0 0 0 0 -0 -0 -0 0 0 0 0 0 0 0 0 0
0 0 0 0 0 0 0 0 0 0 0 -0 -0 0 0 0 0 0 -0 -0 -0 -0
0 0 0 0 0 0 0 0 0 0 0 0 -0 -0 0 -0 -0 -0 -0 -0 -0 -0
0 0 0 0 0 0 0 0 0 0 0 0 0 0 -0 0 0 -0 -0 -0 -0 -0
0 0 0 0 0 0 0 0 0 0 0 0 0 0 0 0 0 0 -0 -0 -0 -0
Wind_Speed_500mb
41 41 42 47 45 46 51 53 52 55 51 54 49 36 45 56 57 59 55 42 29 56
46 46 46 48 47 44 53 51 54 54 55 57 57 40 46 54 55 58 55 42 34 43
46 47 46 48 50 45 52 55 55 57 59 60 57 50 54 59 56 58 52 40 33 31
46 47 43 42 49 47 48 56 60 60 63 60 53 52 50 50 52 52 54 46 33 31
45 48 42 43 44 48 45 53 55 53 62 60 56 56 55 53 51 49 56 51 39 35
53 52 51 47 46 44 46 57 59 57 57 59 60 60 58 50 49 53 57 57 47 38
57 55 54 52 50 50 49 54 64 64 61 62 57 55 57 55 54 50 57 62 54 44
52 55 55 55 53 52 52 54 62 65 65 63 62 60 61 60 57 54 59 61 60 50
52 51 56 57 57 54 53 55 60 64 65 68 67 64 63 62 62 58 59 59 60 60
57 57 58 59 59 60 58 59 58 62 63 65 65 62 58 57 60 61 67 68 65 65
58 61 61 62 64 64 62 60 63 62 62 65 68 64 59 55 55 55 60 67 66 67
62 62 64 67 68 69 67 67 68 66 64 65 66 63 62 59 60 60 60 59 61 67
63 64 64 67 69 72 75 74 71 70 72 70 70 68 66 66 66 67 66 63 61 58
61 62 62 62 66 71 72 74 75 74 71 74 76 73 72 71 72 71 71 73 69 64
Wind_Direction_500mb
196 202 202 198 187 185 178 174 172 177 184 188 192 197 194 188 188 186 192 189 190 193
194 201 207 204 195 188 184 182 180 182 185 186 193 197 207 195 199 198 197 199 207 204
197 199 209 207 200 196 192 189 193 191 192 195 197 203 211 205 208 196 202 205 208 210
197 199 205 210 211 203 200 198 200 195 198 201 203 201 199 212 215 204 203 205 212 219
195 198 206 213 213 211 204 199 203 198 197 204 203 203 208 214 218 210 208 210 214 212
197 202 207 217 217 219 213 209 204 207 203 206 209 211 208 211 219 213 213 209 213 210
206 207 212 215 219 220 220 220 211 210 210 210 211 211 214 215 218 219 216 211 216 216
214 209 212 215 217 221 222 220 216 211 212 214 216 216 212 214 219 216 219 216 217 221
217 212 209 214 214 219 223 219 216 216 215 218 219 218 219 218 222 222 217 217 222 225
224 218 213 213 215 217 220 220 219 220 222 222 223 223 225 228 230 229 226 222 226 226
228 227 222 216 216 216 217 220 222 224 226 228 227 226 227 234 233 232 230 229 228 228
228 231 229 225 220 219 219 221 224 226 229 230 228 230 231 233 235 237 235 232 235 236
233 235 236 233 227 225 224 225 227 229 232 233 232 231 232 232 235 237 239 239 242 243
242 241 242 241 237 232 232 232 232 233 235 236 234 234 235 236 237 240 241 242 242 245
Wind_Speed_850mb
41 41 42 47 45 46 51 53 52 55 51 54 49 36 45 56 57 59 55 42 29 56
46 46 46 48 47 44 53 51 54 54 55 57 57 40 46 54 55 58 55 42 34 43
46 47 46 48 50 45 52 55 55 57 59 60 57 50 54 59 56 58 52 40 33 31
46 47 43 42 49 47 48 56 60 60 63 60 53 52 50 50 52 52 54 46 33 31
45 48 42 43 44 48 45 53 55 53 62 60 56 56 55 53 51 49 56 51 39 35
53 52 51 47 46 44 46 57 59 57 57 59 60 60 58 50 49 53 57 57 47 38
57 55 54 52 50 50 49 54 64 64 61 62 57 55 57 55 54 50 57 62 54 44
52 55 55 55 53 52 52 54 62 65 65 63 62 60 61 60 57 54 59 61 60 50
52 51 56 57 57 54 53 55 60 64 65 68 67 64 63 62 62 58 59 59 60 60
57 57 58 59 59 60 58 59 58 62 63 65 65 62 58 57 60 61 67 68 65 65
58 61 61 62 64 64 62 60 63 62 62 65 68 64 59 55 55 55 60 67 66 67
62 62 64 67 68 69 67 67 68 66 64 65 66 63 62 59 60 60 60 59 61 67
63 64 64 67 69 72 75 74 71 70 72 70 70 68 66 66 66 67 66 63 61 58
61 62 62 62 66 71 72 74 75 74 71 74 76 73 72 71 72 71 71 73 69 64
Wind_Direction_850mb
196 202 202 198 187 185 178 174 172 177 184 188 192 197 194 188 188 186 192 189 190 193
194 201 207 204 195 188 184 182 180 182 185 186 193 197 207 195 199 198 197 199 207 204
197 199 209 207 200 196 192 189 193 191 192 195 197 203 211 205 208 196 202 205 208 210
197 199 205 210 211 203 200 198 200 195 198 201 203 201 199 212 215 204 203 205 212 219
195 198 206 213 213 211 204 199 203 198 197 204 203 203 208 214 218 210 208 210 214 212
197 202 207 217 217 219 213 209 204 207 203 206 209 211 208 211 219 213 213 209 213 210
206 207 212 215 219 220 220 220 211 210 210 210 211 211 214 215 218 219 216 211 216 216
214 209 212 215 217 221 222 220 216 211 212 214 216 216 212 214 219 216 219 216 217 221
217 212 209 214 214 219 223 219 216 216 215 218 219 218 219 218 222 222 217 217 222 225
224 218 213 213 215 217 220 220 219 220 222 222 223 223 225 228 230 229 226 222 226 226
228 227 222 216 216 216 217 220 222 224 226 228 227 226 227 234 233 232 230 229 228 228
228 231 229 225 220 219 219 221 224 226 229 230 228 230 231 233 235 237 235 232 235 236
233 235 236 233 227 225 224 225 227 229 232 233 232 231 232 232 235 237 239 239 242 243
242 241 242 241 237 232 232 232 232 233 235 236 234 234 235 236 237 240 241 242 242 245